Location: Blue Sky Observatory
(43.1153°N, 70.9036°W)
Time: 20:16:04
(UTC-04:00)

Amateur Radio Satellites - All Passes

Search period start: 26 April 2015 19:46
Search period end: 27 April 2015 19:46
Location: Blue Sky Observatory, 43.1153°N, 70.9036°W

Satellite Date Start Highest point End Downlink Frequencies (MHz)
Time Altitude Azimuth
YUBILEINY 26 Apr 19:48:15 19:51:49 13° 52° (NE) 19:55:58 435.215
Cosmos 2499 26 Apr 19:51:36 19:59:56 42° 289° (WNW) 20:07:54 435.465 / 435.565
SO-50 26 Apr 19:51:48 19:56:43 59° 52° (NE) 20:01:35 436.795
COMPASS 1 26 Apr 19:52:46 19:55:41 19° 66° (ENE) 19:58:43 437.405
GOMX 1 26 Apr 19:57:32 20:01:28 40° 71° (ENE) 20:05:38 467.674
STRAND 1 26 Apr 20:02:03 20:07:11 81° 284° (WNW) 20:12:17 437.568
M-CUBED/EXP-1 PRIME 26 Apr 20:04:15 20:08:06 33° 296° (WNW) 20:11:37 437.505
VERMONT LUNAR 26 Apr 20:14:18 20:17:26 35° 196° (SSW) 20:20:34 437.305
BRITE-PL 26 Apr 20:15:24 20:19:33 82° 258° (WSW) 20:23:54 437.365/2234.400
Oscar 11 26 Apr 20:15:27 20:17:45 15° 64° (ENE) 20:20:14 145.826/435.025
SEEDS 26 Apr 20:18:43 20:22:43 42° 72° (ENE) 20:26:48 437.485
HO-68 26 Apr 20:28:27 20:35:39 84° 73° (ENE) 20:42:54 435.675
DOVE 4 26 Apr 20:28:30 20:32:41 57° 74° (ENE) 20:37:09 437.250
CANX-2 26 Apr 20:28:42 20:33:00 72° 75° (ENE) 20:37:20 2200.000
AAUSAT CUBESAT 2 26 Apr 20:33:14 20:37:12 42° 72° (ENE) 20:41:14 437.432
CUTE 1.7 + AOD 2 26 Apr 20:37:40 20:41:57 82° 76° (ENE) 20:46:18 437.475
RS-15 26 Apr 20:43:37 20:53:10 30° 23° (NNE) 21:03:15 29.354- 29.394
AUBIESAT-1 26 Apr 20:46:41 20:49:09 15° 303° (WNW) 20:51:24 437.475
DX 1 26 Apr 20:51:31 20:53:19 13° 62° (ENE) 20:55:18 434.975-435.025
PHONESAT 2.4 26 Apr 20:53:15 20:56:41 44° 193° (SSW) 21:00:07 2401.200-2431.200
CUBEBUG 2 26 Apr 20:56:44 21:00:36 32° 69° (ENE) 21:04:40 437.445
CINEMA 3 26 Apr 21:04:28 21:08:48 71° 75° (ENE) 21:13:23 145.822/145.860
UWE-3 26 Apr 21:20:09 21:24:19 45° 72° (ENE) 21:28:40 435.000/436.395/437.385
O/OREOS (USA 219) 26 Apr 21:21:38 21:25:00 21° 103° (ESE) 21:28:30 437.305
FUNcube-1 26 Apr 21:26:46 21:30:52 42° 71° (ENE) 21:35:06 145.935
COMPASS 1 26 Apr 21:27:05 21:31:06 41° 262° (W) 21:35:09 437.405
UKube-1 26 Apr 21:30:50 21:34:32 29° 68° (ENE) 21:38:18 .
SO-50 26 Apr 21:33:19 21:36:53 20° 249° (WSW) 21:40:18 436.795
Cosmos 2491 26 Apr 21:34:54 21:41:44 28° 83° (E) 21:48:52 435.465 / 435.565
DELFI C3 26 Apr 21:36:27 21:40:31 76° 76° (ENE) 21:44:37 145.870
GOMX 1 26 Apr 21:36:55 21:39:55 18° 270° (W) 21:42:53 467.674
HUMSAT D 26 Apr 21:39:01 21:42:37 28° 69° (ENE) 21:46:20 437.325/437.525
YUBILEINY 26 Apr 21:42:17 21:50:59 64° 77° (ENE) 21:59:37 435.215
STRAND 1 26 Apr 21:43:53 21:45:39 11° 302° (WNW) 21:47:09 437.568
Oscar 11 26 Apr 21:49:12 21:53:30 60° 260° (W) 21:57:50 145.826/435.025
ZACube-1 26 Apr 21:52:21 21:56:42 80° 76° (ENE) 22:01:12 437.345
VERMONT LUNAR 26 Apr 21:53:14 21:54:21 11° 211° (SSW) 21:55:23 437.305
SEEDS 26 Apr 21:55:46 21:58:46 18° 269° (W) 22:01:39 437.485
VELOX 1 26 Apr 22:01:01 22:04:48 30° 68° (ENE) 22:08:40 145.980
CUBEBUG 1 26 Apr 22:04:19 22:06:54 16° 64° (ENE) 22:09:38 437.445
CANX-2 26 Apr 22:08:31 22:09:31 10° 274° (W) 22:10:15 2200.000
DOVE 4 26 Apr 22:08:52 22:11:02 13° 273° (W) 22:13:03 437.250
AAUSAT CUBESAT 2 26 Apr 22:10:11 22:13:05 17° 269° (W) 22:15:51 437.432
50 SAT 26 Apr 22:18:01 22:21:49 45° 73° (ENE) 22:25:42 437.505
AISAT 26 Apr 22:18:54 22:23:06 47° 72° (ENE) 22:27:21 437.250
HO-68 26 Apr 22:19:28 22:24:21 18° 272° (W) 22:28:53 435.675
DX 1 26 Apr 22:24:45 22:29:03 70° 257° (WSW) 22:33:24 434.975-435.025
PHONESAT 2.4 26 Apr 22:32:05 22:34:28 17° 208° (SSW) 22:36:46 2401.200-2431.200
ANTELSAT 26 Apr 22:33:04 22:36:50 24° 93° (E) 22:40:36 437.575/2403.000
CUBEBUG 2 26 Apr 22:33:40 22:37:21 25° 267° (W) 22:41:05 437.445
CINEMA 3 26 Apr 22:45:15 22:46:43 11° 275° (W) 22:47:56 145.822/145.860
QB50P2 26 Apr 22:52:49 22:55:38 17° 91° (E) 22:58:36 145.880/145.840
RS-15 26 Apr 22:56:30 23:08:01 73° 52° (NE) 23:20:04 29.354- 29.394
UWE-3 26 Apr 22:58:07 23:01:10 18° 270° (W) 23:04:09 435.000/436.395/437.385
O/OREOS (USA 219) 26 Apr 22:59:52 23:04:12 41° 299° (WNW) 23:08:32 437.305
ESTCUBE 1 26 Apr 23:01:42 23:06:12 72° 74° (ENE) 23:10:43 437.505/2401.250
FUNcube-1 26 Apr 23:04:16 23:07:27 19° 269° (W) 23:10:34 145.935
UKube-1 26 Apr 23:06:59 23:10:40 26° 265° (W) 23:14:19 .
NANOSAT C BR1 26 Apr 23:09:34 23:13:07 25° 94° (E) 23:16:43 145.865
POPSAT HIP 1 26 Apr 23:13:13 23:16:54 28° 95° (E) 23:20:39 437.405
HUMSAT D 26 Apr 23:14:44 23:18:22 26° 266° (W) 23:21:59 437.325/437.525
SPROUT 26 Apr 23:19:05 23:22:36 26° 68° (ENE) 23:26:13 437.525
TIGRISAT 26 Apr 23:22:04 23:26:48 72° 102° (ESE) 23:31:27 435.000
UNISAT 6 26 Apr 23:26:56 23:31:41 83° 103° (ESE) 23:36:21 437.425
Cosmos 2491 26 Apr 23:29:18 23:37:59 66° 282° (WNW) 23:46:44 435.465 / 435.565
BUGSAT 1 26 Apr 23:31:19 23:34:58 30° 96° (E) 23:38:41 437.445
Cosmos 2504 26 Apr 23:32:09 23:39:02 31° 66° (ENE) 23:45:40 435.465 / 435.565
VELOX 1 26 Apr 23:37:38 23:41:23 26° 266° (W) 23:45:05 145.980
CUBEBUG 1 26 Apr 23:38:41 23:42:55 51° 261° (W) 23:47:09 437.445
YUBILEINY 26 Apr 23:40:02 23:47:16 29° 277° (W) 23:54:12 435.215
DUCHIFAT 1 26 Apr 23:42:39 23:46:53 57° 100° (E) 23:51:07 145.980
POLYITAN 1 26 Apr 23:43:09 23:47:27 61° 101° (E) 23:51:44 437.675
50 SAT 26 Apr 23:54:32 23:56:56 15° 270° (W) 23:59:11 437.505
BEESAT 26 Apr 23:56:38 23:57:38 11° 59° (ENE) 23:58:53 436.000
AISAT 26 Apr 23:57:05 00:00:00 17° 269° (W) 00:02:47 437.250
SWISSCUBE 26 Apr 23:58:29 00:00:18 12° 60° (ENE) 00:02:20 437.505
QB50P1 27 Apr 00:00:56 00:05:15 87° 284° (WNW) 00:09:34 145.935-145.965
AIST 1 27 Apr 00:08:52 00:12:44 34° 92° (E) 00:16:39
ANTELSAT 27 Apr 00:09:21 00:13:44 38° 290° (WNW) 00:18:01 437.575/2403.000
TISAT 1 27 Apr 00:18:45 00:22:56 88° 263° (W) 00:27:09 437.305
QB50P2 27 Apr 00:27:42 00:31:48 43° 288° (WNW) 00:35:52 145.880/145.840
ESTCUBE 1 27 Apr 00:42:01 00:43:40 11° 273° (W) 00:45:03 437.505/2401.250
NANOSAT C BR1 27 Apr 00:45:12 00:48:58 30° 291° (WNW) 00:52:41 145.865
POPSAT HIP 1 27 Apr 00:49:04 00:52:45 27° 292° (WNW) 00:56:22 437.405
SPROUT 27 Apr 00:54:53 00:58:38 29° 265° (W) 01:02:22 437.525
ITUPSAT 1 27 Apr 01:00:22 01:04:51 42° 70° (ENE) 01:09:23 437.325
TIGRISAT 27 Apr 01:00:27 01:03:00 14° 298° (WNW) 01:05:20 435.000
UNISAT 6 27 Apr 01:05:48 01:07:50 12° 299° (WNW) 01:09:40 437.425
BUGSAT 1 27 Apr 01:06:57 01:10:21 24° 292° (WNW) 01:13:43 437.445
RS-15 27 Apr 01:09:41 01:19:48 35° 253° (WSW) 01:29:55 29.354- 29.394
DUCHIFAT 1 27 Apr 01:19:51 01:22:18 15° 296° (WNW) 01:24:35 145.980
BEESAT 3 27 Apr 01:20:14 01:21:31 11° 110° (ESE) 01:23:01 437.485
POLYITAN 1 27 Apr 01:20:34 01:22:55 14° 297° (WNW) 01:25:07 437.675
BEESAT 2 27 Apr 01:24:12 01:24:40 10° 109° (ESE) 01:25:23 435.950
Cosmos 2504 27 Apr 01:25:10 01:32:58 54° 269° (W) 01:40:09 435.465 / 435.565
BEESAT 27 Apr 01:30:00 01:34:47 83° 74° (ENE) 01:39:35 436.000
Cosmos 2491 27 Apr 01:32:35 01:37:05 14° 307° (NW) 01:41:03 435.465 / 435.565
SWISSCUBE 27 Apr 01:32:45 01:37:33 85° 257° (WSW) 01:42:21 437.505
AIST 1 27 Apr 01:47:16 01:50:32 20° 289° (WNW) 01:53:44
Oscar 19 27 Apr 01:54:10 01:59:11 46° 98° (E) 02:04:11 437.125/150
STARS 27 Apr 01:56:39 01:59:44 19° 65° (ENE) 02:02:56 437.465
GONETS M04 27 Apr 02:05:46 02:12:19 23° 61° (ENE) 02:19:10
CUSAT 1 27 Apr 02:13:08 02:17:44 17° 59° (ENE) 02:23:01 437.405
AIST 2 27 Apr 02:30:35 02:33:25 18° 112° (ESE) 02:36:24 435.215
ITAMSAT 1 27 Apr 02:32:06 02:36:41 32° 95° (E) 02:41:19 435.822/435.867
ITUPSAT 1 27 Apr 02:39:11 02:42:57 22° 267° (W) 02:46:37 437.325
KKS-1 27 Apr 02:40:12 02:44:38 83° 75° (ENE) 02:49:07 437.445
BEESAT 3 27 Apr 02:54:57 02:59:02 71° 306° (NW) 03:03:10 437.485
BEESAT 2 27 Apr 02:58:06 03:02:14 80° 304° (NW) 03:06:24 435.950
DANDE 27 Apr 03:00:25 03:06:39 29° 67° (ENE) 03:13:49 436.750
Gurwin Techsat 1B 27 Apr 03:09:36 03:14:53 63° 101° (E) 03:20:09 435.225
BEESAT 27 Apr 03:12:06 03:13:22 11° 274° (W) 03:14:19 436.000
HORYU 2 27 Apr 03:17:12 03:19:28 14° 89° (E) 03:21:56 437.375
MOZHAYETS 4 27 Apr 03:19:00 03:21:47 16° 64° (ENE) 03:24:44
STARS 27 Apr 03:31:43 03:35:55 43° 262° (W) 03:40:08 437.465
Oscar 19 27 Apr 03:34:07 03:38:18 24° 295° (WNW) 03:42:21 437.125/150
Cosmos 2499 27 Apr 03:50:31 03:54:45 16° 56° (NE) 03:59:12 435.465 / 435.565
CUSAT 1 27 Apr 03:54:02 04:01:41 74° 78° (ENE) 04:10:04 437.405
GONETS M04 27 Apr 04:01:32 04:10:26 82° 264° (W) 04:19:14
AO-7 27 Apr 04:04:22 04:11:45 35° 96° (E) 04:19:16 29.400- 29.500
AIST 2 27 Apr 04:07:31 04:11:41 50° 308° (NW) 04:15:53 435.215
ITAMSAT 1 27 Apr 04:11:33 04:16:12 33° 293° (WNW) 04:20:46 435.822/435.867
AUBIESAT-1 27 Apr 04:27:02 04:28:59 13° 56° (NE) 04:31:09 437.475
BEESAT 3 27 Apr 04:36:12 04:37:51 12° 326° (NW) 04:39:22 437.485
BEESAT 2 27 Apr 04:39:04 04:41:05 13° 325° (NW) 04:42:58 435.950
JAS-2 27 Apr 04:41:43 04:48:01 64° 100° (E) 04:53:36 435.910
DANDE 27 Apr 04:42:54 04:50:25 70° 263° (W) 04:58:54 436.750
Gurwin Techsat 1B 27 Apr 04:50:42 04:54:26 19° 298° (WNW) 04:58:00 435.225
HORYU 2 27 Apr 04:52:08 04:56:35 59° 287° (WNW) 05:00:59 437.375
MOZHAYETS 4 27 Apr 04:54:01 04:58:36 59° 260° (W) 05:03:12
CUBESAT XI-V 27 Apr 04:59:59 05:02:26 15° 63° (ENE) 05:05:04 437.345
M-CUBED/EXP-1 PRIME 27 Apr 05:17:46 05:22:15 40° 65° (ENE) 05:26:44 437.505
CUSAT 1 27 Apr 05:37:45 05:44:01 26° 273° (W) 05:50:22 437.405
STRAND 1 27 Apr 05:41:27 05:45:12 22° 64° (ENE) 05:49:04 437.568
Cosmos 2499 27 Apr 05:41:44 05:49:35 81° 81° (E) 05:56:51 435.465 / 435.565
Cubesat XI-IV 27 Apr 05:44:28 05:46:42 13° 87° (E) 05:49:14 437.490
AO-7 27 Apr 05:56:51 06:04:55 56° 295° (WNW) 06:12:57 29.400- 29.500
AUBIESAT-1 27 Apr 05:58:19 06:03:08 86° 69° (ENE) 06:07:56 437.475
GONETS M04 27 Apr 06:00:47 06:06:02 17° 283° (WNW) 06:10:45
PRISM 27 Apr 06:27:33 06:31:41 70° 75° (ENE) 06:35:50 437.425
JAS-2 27 Apr 06:27:46 06:32:31 22° 301° (WNW) 06:36:43 435.910
DANDE 27 Apr 06:28:49 06:32:56 14° 277° (W) 06:36:40 436.750
CUBESAT XI-V 27 Apr 06:34:49 06:39:26 65° 260° (W) 06:44:01 437.345
M-CUBED/EXP-1 PRIME 27 Apr 06:53:05 06:57:10 26° 262° (W) 07:01:10 437.505
PCSat 27 Apr 07:03:32 07:07:19 20° 107° (ESE) 07:11:18 145.827
CUTE-I 27 Apr 07:12:05 07:17:25 82° 102° (ESE) 07:22:46 437.470
STRAND 1 27 Apr 07:19:07 07:24:06 51° 260° (W) 07:29:04 437.568
Cubesat XI-IV 27 Apr 07:22:14 07:27:34 82° 287° (WNW) 07:32:54 437.490
O/OREOS (USA 219) 27 Apr 07:29:28 07:33:49 47° 62° (ENE) 07:38:09 437.305
Cosmos 2499 27 Apr 07:36:42 07:41:44 18° 281° (W) 07:46:13 435.465 / 435.565
AUBIESAT-1 27 Apr 07:36:46 07:38:33 12° 268° (W) 07:40:01 437.475
Cosmos 2491 27 Apr 07:43:52 07:48:03 14° 53° (NE) 07:52:49 435.465 / 435.565
AO-7 27 Apr 07:52:03 07:56:05 14° 316° (NW) 07:59:45 29.400- 29.500
HO-68 27 Apr 07:57:34 08:00:53 14° 85° (E) 08:04:41 435.675
GOMX 1 27 Apr 07:58:50 08:01:28 14° 87° (E) 08:04:25 467.674
PRISM 27 Apr 08:07:04 08:07:42 10° 272° (W) 08:08:06 437.425
CANX-2 27 Apr 08:15:20 08:16:47 12° 87° (E) 08:18:27 2200.000
BRITE-PL 27 Apr 08:18:10 08:22:45 32° 95° (E) 08:27:40 437.365/2234.400
CUTE 1.7 + AOD 2 27 Apr 08:23:45 08:25:44 13° 88° (E) 08:27:56 437.475
DOVE 4 27 Apr 08:26:55 08:30:18 18° 89° (E) 08:33:56 437.250
PCSat 27 Apr 08:44:58 08:50:19 60° 304° (NW) 08:55:43 145.827
YUBILEINY 27 Apr 08:53:45 08:57:08 13° 75° (ENE) 09:01:10 435.215
CUTE-I 27 Apr 08:53:52 08:56:54 15° 300° (WNW) 08:59:44 437.470
CINEMA 3 27 Apr 08:59:04 09:02:27 19° 90° (E) 09:06:01 145.822/145.860
Cubesat XI-IV 27 Apr 09:04:43 09:06:56 12° 302° (WNW) 09:08:54 437.490
COMPASS 1 27 Apr 09:09:49 09:13:26 28° 95° (E) 09:17:05 437.405
O/OREOS (USA 219) 27 Apr 09:09:53 09:12:54 17° 259° (W) 09:15:45 437.305
ANTELSAT 27 Apr 09:33:10 09:36:48 24° 66° (ENE) 09:40:34 437.575/2403.000
GOMX 1 27 Apr 09:34:58 09:40:09 77° 285° (WNW) 09:45:34 467.674
Oscar 11 27 Apr 09:36:10 09:39:36 23° 93° (E) 09:43:04 145.826/435.025
BEESAT 3 27 Apr 09:36:14 09:38:25 14° 37° (NE) 09:40:42 437.485
SEEDS 27 Apr 09:37:36 09:41:51 72° 101° (ESE) 09:46:03 437.485
Cosmos 2491 27 Apr 09:38:18 09:47:08 67° 78° (ENE) 09:55:55 435.465 / 435.565
BEESAT 2 27 Apr 09:39:58 09:41:58 13° 36° (NE) 09:44:05 435.950
ZACube-1 27 Apr 09:41:21 09:44:04 16° 89° (E) 09:46:57 437.345
HO-68 27 Apr 09:42:39 09:49:54 81° 106° (ESE) 09:57:04 435.675
QB50P2 27 Apr 09:47:24 09:49:55 16° 64° (ENE) 09:52:35 145.880/145.840
CANX-2 27 Apr 09:48:58 09:53:14 64° 285° (WNW) 09:57:26 2200.000
AAUSAT CUBESAT 2 27 Apr 09:50:35 09:54:48 71° 101° (ESE) 09:58:56 437.432
BRITE-PL 27 Apr 09:56:38 10:01:16 35° 290° (WNW) 10:06:08 437.365/2234.400
CUTE 1.7 + AOD 2 27 Apr 09:57:53 10:02:06 56° 286° (WNW) 10:06:15 437.475
DOVE 4 27 Apr 10:03:23 10:08:28 61° 286° (WNW) 10:13:40 437.250
NANOSAT C BR1 27 Apr 10:03:30 10:06:43 22° 67° (ENE) 10:10:03 145.865
POPSAT HIP 1 27 Apr 10:07:19 10:10:42 24° 68° (ENE) 10:14:11 437.405
SO-50 27 Apr 10:09:25 10:11:50 14° 109° (ESE) 10:14:28 436.795
DX 1 27 Apr 10:13:01 10:16:00 18° 92° (E) 10:19:08 434.975-435.025
AIST 1 27 Apr 10:17:53 10:17:54 10° 64° (ENE) 10:18:11
TIGRISAT 27 Apr 10:21:28 10:25:59 70° 74° (ENE) 10:30:38 435.000
CUBEBUG 2 27 Apr 10:22:41 10:27:27 64° 101° (E) 10:32:11 437.445
BUGSAT 1 27 Apr 10:22:51 10:26:02 24° 68° (ENE) 10:29:20 437.445
UNISAT 6 27 Apr 10:26:33 10:31:06 81° 74° (ENE) 10:35:47 437.425
PCSat 27 Apr 10:32:16 10:34:59 13° 326° (NNW) 10:37:31 145.827
CINEMA 3 27 Apr 10:35:07 10:40:01 55° 287° (WNW) 10:44:55 145.822/145.860
DUCHIFAT 1 27 Apr 10:35:57 10:39:59 47° 72° (ENE) 10:44:04 145.980
POLYITAN 1 27 Apr 10:37:04 10:41:09 51° 73° (ENE) 10:45:19 437.675
YUBILEINY 27 Apr 10:43:47 10:52:31 71° 94° (E) 11:01:18 435.215
UWE-3 27 Apr 10:45:10 10:49:54 88° 105° (ESE) 10:54:35 435.000/436.395/437.385
COMPASS 1 27 Apr 10:45:32 10:49:03 26° 292° (WNW) 10:52:30 437.405
DELFI C3 27 Apr 10:50:02 10:54:05 71° 284° (WNW) 10:58:04 145.870
FUNcube-1 27 Apr 10:50:03 10:54:42 79° 103° (ESE) 10:59:15 145.935
AIST 2 27 Apr 10:50:30 10:53:39 20° 41° (NE) 10:56:50 435.215
UKube-1 27 Apr 10:52:46 10:56:56 45° 99° (E) 11:01:07 .
QB50P1 27 Apr 10:54:26 10:58:38 79° 77° (ENE) 11:02:53 145.935-145.965
ESTCUBE 1 27 Apr 10:55:05 10:57:18 14° 89° (E) 10:59:45 437.505/2401.250
HUMSAT D 27 Apr 10:57:12 11:01:23 46° 98° (E) 11:05:33 437.325/437.525
ANTELSAT 27 Apr 11:09:09 11:13:23 37° 264° (W) 11:17:43 437.575/2403.000
Oscar 11 27 Apr 11:11:55 11:15:52 33° 290° (WNW) 11:19:44 145.826/435.025
BEESAT 3 27 Apr 11:12:56 11:17:04 87° 238° (WSW) 11:21:06 437.485
SEEDS 27 Apr 11:15:32 11:17:08 12° 297° (WNW) 11:18:31 437.485
GOMX 1 27 Apr 11:15:50 11:17:36 11° 299° (WNW) 11:19:06 467.674
ZACube-1 27 Apr 11:16:18 11:20:50 55° 286° (WNW) 11:25:18 437.345
BEESAT 2 27 Apr 11:16:38 11:20:47 85° 55° (NE) 11:24:52 435.950
QB50P2 27 Apr 11:21:20 11:25:27 50° 261° (W) 11:29:37 145.880/145.840
VELOX 1 27 Apr 11:26:17 11:30:38 52° 100° (E) 11:34:59 145.980
CUBEBUG 1 27 Apr 11:26:50 11:30:29 26° 94° (E) 11:34:12 437.445
AAUSAT CUBESAT 2 27 Apr 11:28:20 11:29:54 12° 297° (WNW) 11:31:16 437.432
50 SAT 27 Apr 11:28:39 11:32:41 63° 100° (E) 11:36:41 437.505
HO-68 27 Apr 11:31:34 11:36:55 22° 304° (WNW) 11:42:02 435.675
Cosmos 2491 27 Apr 11:36:12 11:43:22 28° 277° (W) 11:50:14 435.465 / 435.565
Oscar 19 27 Apr 11:37:34 11:38:28 11° 57° (ENE) 11:39:41 437.125/150
ISS 27 Apr 11:37:40 11:40:53 63° 143° (SE) 11:44:07 145.825
NANOSAT C BR1 27 Apr 11:38:34 11:42:24 33° 263° (W) 11:46:15 145.865
POPSAT HIP 1 27 Apr 11:42:43 11:46:29 30° 264° (W) 11:50:13 437.405
AISAT 27 Apr 11:44:49 11:49:19 86° 107° (ESE) 11:53:48 437.250
SO-50 27 Apr 11:47:08 11:51:48 72° 306° (NW) 11:56:39 436.795
DX 1 27 Apr 11:48:21 11:52:30 42° 289° (WNW) 11:56:37 434.975-435.025
AIST 1 27 Apr 11:51:58 11:56:14 76° 264° (W) 12:00:30
BUGSAT 1 27 Apr 11:57:56 12:01:27 28° 265° (W) 12:04:55 437.445
CUBEBUG 2 27 Apr 12:00:41 12:03:40 16° 297° (WNW) 12:06:28 437.445
TIGRISAT 27 Apr 12:01:23 12:03:22 12° 274° (W) 12:05:06 435.000
TISAT 1 27 Apr 12:03:55 12:06:00 14° 89° (E) 12:08:19 437.305
UNISAT 6 27 Apr 12:07:41 12:08:38 10° 275° (W) 12:09:15 437.425
Cosmos 2504 27 Apr 12:11:23 12:18:15 27° 83° (E) 12:25:19 435.465 / 435.565
DUCHIFAT 1 27 Apr 12:13:34 12:16:08 15° 270° (W) 12:18:34 145.980
POLYITAN 1 27 Apr 12:15:02 12:17:27 14° 271° (W) 12:19:43 437.675
UWE-3 27 Apr 12:24:03 12:25:47 12° 299° (WNW) 12:27:17 435.000/436.395/437.385
FUNcube-1 27 Apr 12:28:24 12:30:26 13° 298° (WNW) 12:32:16 145.935
AIST 2 27 Apr 12:28:25 12:32:35 55° 241° (WSW) 12:36:40 435.215
UKube-1 27 Apr 12:29:46 12:32:47 18° 295° (WNW) 12:35:41 .
ESTCUBE 1 27 Apr 12:30:13 12:34:39 59° 286° (WNW) 12:39:02 437.505/2401.250
HUMSAT D 27 Apr 12:33:50 12:36:50 18° 295° (WNW) 12:39:42 437.325/437.525
SPROUT 27 Apr 12:39:57 12:44:06 44° 98° (E) 12:48:15 437.525
YUBILEINY 27 Apr 12:42:55 12:50:16 27° 296° (WNW) 12:57:22 435.215
Gurwin Techsat 1B 27 Apr 12:54:37 12:57:36 16° 60° (ENE) 13:00:48 435.225
CUBEBUG 1 27 Apr 13:03:02 13:06:52 30° 291° (WNW) 13:10:39 437.445
VELOX 1 27 Apr 13:03:56 13:06:51 17° 296° (WNW) 13:09:37 145.980
50 SAT 27 Apr 13:05:19 13:07:01 12° 297° (WNW) 13:08:33 437.505
Oscar 19 27 Apr 13:11:53 13:17:01 73° 73° (ENE) 13:22:13 437.125/150
ISS 27 Apr 13:14:36 13:17:26 27° 342° (NNW) 13:20:17 145.825
AO-7 27 Apr 13:17:52 13:21:03 13° 43° (NE) 13:24:40 29.400- 29.500
RS-15 27 Apr 13:22:16 13:31:53 40° 109° (ESE) 13:41:52 29.354- 29.394
AISAT 27 Apr 13:23:58 13:25:19 11° 299° (WNW) 13:26:26 437.250
BEESAT 27 Apr 13:30:13 13:33:36 20° 91° (E) 13:37:07 436.000
SO-50 27 Apr 13:30:29 13:33:18 15° 328° (NNW) 13:36:01 436.795
SWISSCUBE 27 Apr 13:32:50 13:36:31 23° 93° (E) 13:40:19 437.505
TISAT 1 27 Apr 13:38:02 13:42:12 54° 287° (WNW) 13:46:22 437.305
ITAMSAT 1 27 Apr 13:50:54 13:55:55 54° 71° (ENE) 14:00:59 435.822/435.867
Cosmos 2504 27 Apr 14:02:11 14:11:03 70° 281° (W) 14:19:47 435.465 / 435.565
HORYU 2 27 Apr 14:16:39 14:19:20 16° 63° (ENE) 14:22:11 437.375
SPROUT 27 Apr 14:16:50 14:19:54 19° 294° (WNW) 14:22:51 437.525
Gurwin Techsat 1B 27 Apr 14:31:42 14:37:01 78° 256° (WSW) 14:42:22 435.225
KKS-1 27 Apr 14:31:43 14:34:16 15° 90° (E) 14:37:00 437.445
ITUPSAT 1 27 Apr 14:37:24 14:42:12 89° 106° (ESE) 14:46:57 437.325
ISS 27 Apr 14:52:12 14:54:33 18° 2° (N) 14:56:54 145.825
JAS-2 27 Apr 14:52:52 14:59:51 38° 66° (ENE) 15:06:38 435.910
Oscar 19 27 Apr 14:54:13 14:57:02 14° 273° (W) 14:59:35 437.125/150
AO-7 27 Apr 15:04:15 15:12:08 53° 64° (ENE) 15:20:07 29.400- 29.500
BEESAT 27 Apr 15:07:10 15:11:45 46° 289° (WNW) 15:16:16 436.000
GONETS M04 27 Apr 15:09:26 15:15:50 24° 81° (E) 15:22:36
SWISSCUBE 27 Apr 15:10:07 15:14:35 40° 290° (WNW) 15:18:59 437.505
STARS 27 Apr 15:20:31 15:24:28 31° 96° (E) 15:28:27 437.465
ITAMSAT 1 27 Apr 15:32:03 15:35:50 19° 269° (W) 15:39:27 435.822/435.867
RS-15 27 Apr 15:33:00 15:43:49 63° 312° (NW) 15:54:54 29.354- 29.394
PCSat 27 Apr 15:49:05 15:53:26 24° 44° (NE) 15:57:50 145.827
HORYU 2 27 Apr 15:51:09 15:55:34 57° 259° (W) 16:00:01 437.375
Cosmos 2504 27 Apr 16:01:09 16:06:23 16° 304° (NW) 16:11:02 435.465 / 435.565
KKS-1 27 Apr 16:06:54 16:11:19 54° 287° (WNW) 16:15:41 437.445
VERMONT LUNAR 27 Apr 16:08:16 16:11:08 26° 159° (SSE) 16:14:02 437.305
DANDE 27 Apr 16:17:30 16:19:07 13° 81° (E) 16:21:07 436.750
ITUPSAT 1 27 Apr 16:17:39 16:19:27 12° 300° (WNW) 16:21:01 437.325
ISS 27 Apr 16:28:35 16:31:36 32° 22° (NNE) 16:34:36 145.825
Cosmos 2499 27 Apr 16:31:02 16:34:08 13° 76° (ENE) 16:37:52 435.465 / 435.565
JAS-2 27 Apr 16:37:04 16:44:41 51° 262° (W) 16:52:01 435.910
MOZHAYETS 4 27 Apr 16:48:30 16:52:32 30° 95° (E) 16:56:34
CUTE-I 27 Apr 16:56:55 17:00:43 21° 63° (ENE) 17:04:40 437.470
PHONESAT 2.4 27 Apr 16:56:59 16:59:56 24° 157° (SSE) 17:02:55 2401.200-2431.200
STARS 27 Apr 16:57:05 17:00:50 27° 293° (WNW) 17:04:31 437.465
AO-7 27 Apr 16:57:39 17:05:13 37° 263° (W) 17:12:42 29.400- 29.500
GONETS M04 27 Apr 17:03:07 17:11:53 74° 281° (W) 17:20:46
CUSAT 1 27 Apr 17:04:26 17:08:11 66° 96° (E) 17:13:16 437.405
Cubesat XI-IV 27 Apr 17:06:40 17:10:54 25° 65° (ENE) 17:15:15 437.490
PCSat 27 Apr 17:31:57 17:37:19 62° 243° (WSW) 17:42:37 145.827
VERMONT LUNAR 27 Apr 17:44:59 17:48:17 53° 176° (S) 17:51:36 437.305
RS-15 27 Apr 17:49:59 17:59:05 27° 343° (NNW) 18:08:18 29.354- 29.394
DANDE 27 Apr 17:58:05 18:01:32 43° 288° (WNW) 18:06:08 436.750
ISS 27 Apr 18:04:54 18:08:00 41° 220° (SW) 18:11:05 145.825
Cosmos 2499 27 Apr 18:17:15 18:25:59 67° 94° (E) 18:34:28 435.465 / 435.565
MOZHAYETS 4 27 Apr 18:25:45 18:29:42 28° 292° (WNW) 18:33:34
HO-68 27 Apr 18:28:49 18:32:13 15° 51° (NE) 18:35:58 435.675
CUBESAT XI-V 27 Apr 18:30:51 18:34:50 29° 94° (E) 18:38:52 437.345
M-CUBED/EXP-1 PRIME 27 Apr 18:34:16 18:37:29 22° 97° (E) 18:40:33 437.505
PHONESAT 2.4 27 Apr 18:34:19 18:37:49 52° 173° (S) 18:41:20 2401.200-2431.200
CUTE-I 27 Apr 18:35:12 18:40:26 57° 259° (W) 18:45:41 437.470
SO-50 27 Apr 18:37:49 18:41:44 23° 40° (NE) 18:45:43 436.795
Cubesat XI-IV 27 Apr 18:45:41 18:50:47 45° 261° (W) 18:55:54 437.490
CUSAT 1 27 Apr 18:50:01 18:52:04 13° 306° (NW) 18:54:08 437.405
GONETS M04 27 Apr 19:05:20 19:10:43 16° 305° (NW) 19:15:37
GOMX 1 27 Apr 19:09:17 19:11:21 14° 62° (ENE) 19:13:38 467.674
CANX-2 27 Apr 19:10:20 19:11:25 11° 62° (ENE) 19:12:43 2200.000
AUBIESAT-1 27 Apr 19:14:04 19:18:07 55° 105° (ESE) 19:21:49 437.475
CUTE 1.7 + AOD 2 27 Apr 19:18:31 19:20:10 12° 63° (ENE) 19:22:01 437.475
VERMONT LUNAR 27 Apr 19:22:18 19:25:32 42° 192° (SSW) 19:28:46 437.305
STRAND 1 27 Apr 19:28:29 19:33:27 50° 100° (E) 19:38:24 437.568
BRITE-PL 27 Apr 19:31:01 19:34:44 33° 70° (ENE) 19:38:39 437.365/2234.400
DOVE 4 27 Apr 19:34:33 19:37:16 17° 63° (ENE) 19:40:14 437.250
